• In France
  • List of Countries
  • For 7 days
  • Water Temperature
  • Satellite Maps
  • Weather Map
  • Weather Widgets
  • user-avatar
    Login

    Hourly Weather Phenian

    Today, 18 December, Monday

    Time Temperature Precipitation Wind Pressure Humidity
    00:00 -10°C° 0 mm 2 mps 769 mmHg 67%
    01:00 -9°C° 0 mm 2 mps 769 mmHg 70%
    02:00 -9°C° 0 mm 2 mps 769 mmHg 70%
    03:00 -9°C° 0 mm 2 mps 768 mmHg 73%
    04:00 -8°C° 0 mm 1 mps 768 mmHg 76%
    05:00 -8°C° 0 mm 1 mps 768 mmHg 80%
    06:00 -8°C° 0 mm 1 mps 768 mmHg 81%
    07:00 -7°C° 0 mm 1 mps 767 mmHg 82%
    08:00 -7°C° 0 mm 2 mps 767 mmHg 83%
    09:00 -4°C° 0 mm 1 mps 767 mmHg 79%
    10:00 -2°C° 0 mm 1 mps 767 mmHg 75%
    11:00 0°C° 0 mm 1 mps 767 mmHg 71%
    12:00 0°C° 0 mm 1 mps 766 mmHg 70%
    13:00 +1°C° 0 mm 1 mps 766 mmHg 70%
    14:00 +1°C° 0 mm 1 mps 766 mmHg 72%
    15:00 0°C° 0 mm 1 mps 766 mmHg 76%
    16:00 -3°C° 0 mm 2 mps 766 mmHg 80%
    17:00 -5°C° 0 mm 2 mps 766 mmHg 84%
    18:00 -5°C° 0 mm 2 mps 767 mmHg 82%
    19:00 -7°C° 0 mm 3 mps 767 mmHg 80%
    20:00 -7°C° 0 mm 2 mps 768 mmHg 80%
    21:00 -7°C° 0 mm 2 mps 768 mmHg 78%
    22:00 -7°C° 0 mm 2 mps 769 mmHg 76%
    23:00 -7°C° 0 mm 2 mps 769 mmHg 74%

    Tomorrow, 19 December, Tuesday

    Time Temperature Precipitation Wind Pressure Humidity
    00:00 -8°C° 0 mm 3 mps 770 mmHg 71%
    01:00 -9°C° 0 mm 4 mps 770 mmHg 68%
    02:00 -10°C° 0 mm 5 mps 771 mmHg 66%
    03:00 -11°C° 0 mm 5 mps 771 mmHg 65%
    04:00 -11°C° 0 mm 5 mps 771 mmHg 64%
    05:00 -12°C° 0 mm 5 mps 771 mmHg 64%
    06:00 -11°C° 0 mm 4 mps 772 mmHg 64%
    07:00 -11°C° 0 mm 4 mps 772 mmHg 64%
    08:00 -11°C° 0 mm 4 mps 772 mmHg 64%
    09:00 -10°C° 0 mm 4 mps 772 mmHg 60%
    10:00 -10°C° 0 mm 4 mps 772 mmHg 56%
    11:00 -9°C° 0 mm 4 mps 772 mmHg 52%
    12:00 -9°C° 0 mm 4 mps 772 mmHg 51%
    13:00 -9°C° 0 mm 4 mps 772 mmHg 50%
    14:00 -8°C° 0 mm 4 mps 772 mmHg 50%
    15:00 -9°C° 0 mm 4 mps 772 mmHg 54%
    16:00 -9°C° 0 mm 3 mps 772 mmHg 57%
    17:00 -9°C° 0 mm 2 mps 772 mmHg 61%
    18:00 -9°C° 0 mm 2 mps 772 mmHg 61%
    19:00 -8°C° 0 mm 1 mps 772 mmHg 60%
    20:00 -9°C° 0 mm 1 mps 772 mmHg 60%
    21:00 -9°C° 0 mm 1 mps 772 mmHg 59%
    22:00 -9°C° 0 mm 1 mps 772 mmHg 57%
    23:00 -10°C° 0 mm 2 mps 772 mmHg 56%

    Day after tomorrow, 20 December, Wednesday

    Time Temperature Precipitation Wind Pressure Humidity
    00:00 -10°C° 0 mm 2 mps 771 mmHg 57%
    01:00 -9°C° 0 mm 2 mps 771 mmHg 57%
    02:00 -9°C° 0 mm 2 mps 770 mmHg 58%
    03:00 -9°C° 0.4 mm 2 mps 770 mmHg 69%
    04:00 -10°C° 0.4 mm 3 mps 769 mmHg 79%
    05:00 -10°C° 0.4 mm 3 mps 769 mmHg 90%
    06:00 -9°C° 0.6 mm 3 mps 769 mmHg 90%
    07:00 -9°C° 0.6 mm 3 mps 769 mmHg 91%
    08:00 -7°C° 0.6 mm 2 mps 769 mmHg 91%
    09:00 -6°C° 0.5 mm 2 mps 769 mmHg 91%
    10:00 -5°C° 0.5 mm 2 mps 768 mmHg 91%
    11:00 -4°C° 0.5 mm 2 mps 768 mmHg 91%
    12:00 -4°C° 0.1 mm 2 mps 768 mmHg 90%
    13:00 -3°C° 0.1 mm 2 mps 768 mmHg 89%
    14:00 -1°C° 0.1 mm 1 mps 768 mmHg 87%
    15:00 -3°C° 0 mm 2 mps 768 mmHg 89%
    16:00 -4°C° 0 mm 2 mps 769 mmHg 90%
    17:00 -5°C° 0 mm 2 mps 769 mmHg 92%
    18:00 -6°C° 0 mm 2 mps 769 mmHg 91%
    19:00 -6°C° 0 mm 1 mps 770 mmHg 91%
    20:00 -6°C° 0 mm 1 mps 770 mmHg 90%
    21:00 -7°C° 0 mm 1 mps 771 mmHg 89%
    22:00 -7°C° 0 mm 1 mps 771 mmHg 87%
    23:00 -7°C° 0 mm 1 mps 771 mmHg 86%

    21 December, Thursday

    Time Temperature Precipitation Wind Pressure Humidity
    00:00 -7°C° 0 mm 1 mps 771 mmHg 86%
    01:00 -8°C° 0 mm 1 mps 771 mmHg 85%
    02:00 -8°C° 0 mm 0 mps 771 mmHg 84%
    03:00 -8°C° 0 mm 0 mps 771 mmHg 84%
    04:00 -8°C° 0 mm 0 mps 771 mmHg 83%
    05:00 -9°C° 0 mm 0 mps 771 mmHg 83%
    06:00 -8°C° 0 mm 1 mps 771 mmHg 82%
    07:00 -8°C° 0 mm 1 mps 771 mmHg 81%
    08:00 -7°C° 0 mm 1 mps 772 mmHg 80%
    09:00 -4°C° 0 mm 1 mps 771 mmHg 75%
    10:00 -3°C° 0 mm 1 mps 771 mmHg 70%
    11:00 -1°C° 0 mm 1 mps 771 mmHg 65%
    12:00 0°C° 0 mm 1 mps 770 mmHg 66%
    13:00 +1°C° 0 mm 1 mps 770 mmHg 68%
    14:00 +1°C° 0 mm 1 mps 770 mmHg 69%
    15:00 0°C° 0 mm 1 mps 770 mmHg 73%
    16:00 -1°C° 0 mm 1 mps 770 mmHg 76%
    17:00 -2°C° 0 mm 1 mps 770 mmHg 80%
    18:00 -2°C° 0 mm 1 mps 770 mmHg 80%
    19:00 -2°C° 0 mm 1 mps 770 mmHg 81%
    20:00 -2°C° 0 mm 1 mps 770 mmHg 82%
    21:00 -2°C° 0 mm 1 mps 770 mmHg 83%
    22:00 -2°C° 0 mm 1 mps 770 mmHg 84%
    23:00 -2°C° 0 mm 1 mps 769 mmHg 85%

    22 December, Friday

    Time Temperature Precipitation Wind Pressure Humidity
    00:00 -2°C° 0 mm 1 mps 769 mmHg 86%
    01:00 -1°C° 0 mm 1 mps 769 mmHg 87%
    02:00 -1°C° 0 mm 1 mps 769 mmHg 88%
    03:00 -1°C° 0 mm 1 mps 769 mmHg 88%
    04:00 -1°C° 0 mm 1 mps 769 mmHg 88%
    05:00 -1°C° 0 mm 1 mps 768 mmHg 88%
    06:00 -1°C° 0 mm 1 mps 768 mmHg 88%
    07:00 -3°C° 0 mm 2 mps 768 mmHg 87%
    08:00 -3°C° 0 mm 2 mps 768 mmHg 87%
    09:00 -1°C° 0 mm 2 mps 768 mmHg 87%
    10:00 +1°C° 0 mm 2 mps 768 mmHg 88%
    11:00 +3°C° 0 mm 2 mps 767 mmHg 88%
    12:00 +3°C° 0 mm 2 mps 767 mmHg 88%
    13:00 +4°C° 0 mm 2 mps 766 mmHg 88%
    14:00 +4°C° 0 mm 2 mps 766 mmHg 89%
    15:00 +3°C° 0 mm 2 mps 766 mmHg 89%
    16:00 +2°C° 0 mm 2 mps 766 mmHg 89%
    17:00 +1°C° 0 mm 2 mps 766 mmHg 89%
    18:00 +1°C° 0 mm 2 mps 766 mmHg 89%
    19:00 +1°C° 0 mm 2 mps 766 mmHg 89%
    20:00 -1°C° 0 mm 2 mps 766 mmHg 89%
    21:00 -1°C° 0 mm 2 mps 766 mmHg 89%
    22:00 +1°C° 0 mm 1 mps 765 mmHg 89%
    23:00 +1°C° 0 mm 1 mps 765 mmHg 89%

    23 December, Saturday

    Time Temperature Precipitation Wind Pressure Humidity
    00:00 +1°C° 0 mm 1 mps 765 mmHg 89%
    01:00 +1°C° 0 mm 1 mps 765 mmHg 89%
    02:00 +1°C° 0 mm 1 mps 765 mmHg 89%
    03:00 +1°C° 0 mm 1 mps 765 mmHg 89%
    04:00 0°C° 0 mm 1 mps 764 mmHg 89%
    05:00 0°C° 0 mm 1 mps 764 mmHg 89%
    06:00 0°C° 0 mm 1 mps 764 mmHg 89%
    07:00 +1°C° 0 mm 1 mps 764 mmHg 89%
    08:00 +1°C° 0 mm 1 mps 764 mmHg 89%
    09:00 +2°C° 0 mm 1 mps 764 mmHg 88%
    10:00 +3°C° 0 mm 1 mps 764 mmHg 86%
    11:00 +4°C° 0 mm 1 mps 764 mmHg 85%
    12:00 +4°C° 0 mm 1 mps 763 mmHg 85%
    13:00 +4°C° 0 mm 1 mps 763 mmHg 85%
    14:00 +4°C° 0 mm 1 mps 762 mmHg 85%
    15:00 +3°C° 0 mm 1 mps 762 mmHg 88%
    16:00 +1°C° 0 mm 1 mps 762 mmHg 90%
    17:00 0°C° 0 mm 1 mps 762 mmHg 93%
    18:00 0°C° 0 mm 1 mps 763 mmHg 92%
    19:00 0°C° 0 mm 1 mps 763 mmHg 91%
    20:00 -1°C° 0 mm 1 mps 763 mmHg 90%
    21:00 -1°C° 0 mm 1 mps 763 mmHg 88%
    22:00 -1°C° 0 mm 1 mps 763 mmHg 87%
    23:00 -1°C° 0 mm 1 mps 763 mmHg 86%
    Show more